Location: Haulchin
(50.3172°N, 3.4360°E)
Time: 19:35:40
(UTC+00:00)

Timation 1 Rocket - Pass Details

Date: 23 May 2024
Orbit: 898 x 906 km, 70.0° (Epoch: 14 June)

Event Time Altitude Azimuth Distance (km) Brightness Sun altitude
Exits shadow 02:32:22 12° 218° (SW) 2,401 5.9 -9.8°
Maximum altitude 02:37:51 74° 303° (WNW) 940 4.4 -9.2°
Drops below altitude 10° 02:43:49 10° 29° (NNE) 2,585 8.2 -8.6°
Sets 02:46:20 0° 31° (NNE) 3,530 9.4 -8.3°
